Tracking 27380 objects as of 5-Jun-2023
HD Live streaming from Space Station
objects crossing your sky now

DELTA 1 DEB

Track DELTA 1 DEB now!
10-day predictions


NORAD ID: 7169
Int'l Code: 1973-086EH
Perigee: 1,292.1 km
Apogee: 1,502.0 km
Inclination: 101.5 °
Period: 113.6 minutes
Semi major axis: 7768 km
RCS: 0.0854 m2 (small)
Launch date: November 6, 1973
Source: United States (US)
Launch site: AIR FORCE WESTERN TEST RANGE (AFWTR)

Note: This is SATELLITE DEBRIS
Your satellite tracking list
Your tracking list is empty




NASA's NSSDC Master Catalog

Two Line Element Set (TLE):
1 07169U 73086EH  23155.67268961  .00000078  00000-0  61370-3 0  9993
2 07169 101.5103 212.0892 0135082 137.2009 350.2092 12.68049923288925
Source of the keplerian elements: AFSPC